Terug naar catalogus

SL-8 DEB

ActiefLEO
NORAD 21332·DEBRIS·🇷🇺 Russia

Gelanceerd Feb 12, 1991 vanaf Plesetsk Cosmodrome

Loading…

Volgende Passages (komende 24 uur)

TLE

VersSource: Space-Track

Epoch: Sep 14, 2026, 07:28 UTC

1 21332U 91009CP  26257.31119668 -.00000299  00000-0 -27266-2 0  9994
2 21332  74.1972  14.9461 0147268 117.6044 271.9843 12.18433069529477

Volg SL-8 DEB in realtime met AllMySat

Download on the App Store